Location: Stilling
(56.0622°N, 9.9882°E)
Time: 13:13:31
(UTC+00:00)

Cosmos 2344 - Pass Details

Date: 13 July 2020
Orbit: 1249 x 2993 km, 63.3° (Epoch: 06 August)

Event Time Altitude Azimuth Distance (km) Brightness Sun altitude
Rises 20:51:29 0° 198° (SSW) 4,233 6.0 -5.7°
Reaches altitude 10° 20:54:20 10° 192° (SSW) 3,227 5.3 -5.9°
Maximum altitude 21:01:18 45° 122° (ESE) 1,689 3.9 -6.5°
Drops below altitude 10° 21:09:00 10° 53° (NE) 3,574 6.0 -7.1°
Sets 21:12:20 0° 48° (NE) 4,734 6.7 -7.3°
